Time,TemperatureF,DewpointF,PressureIn,WindDirection,WindDirectionDegrees,WindSpeedMPH,WindSpeedGustMPH,Humidity,HourlyPrecipIn,Conditions,Clouds,dailyrainin,SoftwareType,DateUTC
2013-04-29 00:02:00,54.0,49.0,29.80,South,186,0.0,4.0,83,0.00,,,0.00,,2013-04-29 05:02:00,
2013-04-29 00:12:00,54.0,49.0,29.80,South,186,0.0,4.0,83,0.00,,,0.00,,2013-04-29 05:12:00,
2013-04-29 00:22:00,54.0,49.0,29.80,South,186,0.0,1.0,84,0.00,,,0.00,,2013-04-29 05:22:00,
2013-04-29 00:32:00,54.0,50.0,29.80,South,186,0.0,2.0,85,0.00,,,0.00,,2013-04-29 05:32:00,
2013-04-29 00:42:00,54.0,50.0,29.80,South,186,0.0,2.0,85,0.00,,,0.00,,2013-04-29 05:42:00,
2013-04-29 00:52:00,53.0,49.0,29.80,South,186,0.0,1.0,86,0.00,,,0.00,,2013-04-29 05:52:00,
2013-04-29 01:02:00,53.0,49.0,29.80,South,186,0.0,1.0,86,0.00,,,0.00,,2013-04-29 06:02:00,
2013-04-29 01:11:00,53.0,49.0,29.80,South,186,0.0,1.0,86,0.00,,,0.00,,2013-04-29 06:11:00,
2013-04-29 01:21:00,52.0,48.0,29.80,South,186,0.0,0.0,87,0.00,,,0.00,,2013-04-29 06:21:00,
2013-04-29 01:32:00,52.0,48.0,29.80,South,186,0.0,1.0,87,0.00,,,0.00,,2013-04-29 06:32:00,
2013-04-29 01:42:00,52.0,48.0,29.80,South,186,0.0,1.0,87,0.00,,,0.00,,2013-04-29 06:42:00,
2013-04-29 01:52:00,52.0,49.0,29.80,South,186,0.0,0.0,88,0.00,,,0.00,,2013-04-29 06:52:00,
2013-04-29 02:01:00,52.0,49.0,29.79,South,186,0.0,0.0,88,0.00,,,0.00,,2013-04-29 07:01:00,
2013-04-29 02:11:00,52.0,49.0,29.79,South,186,0.0,0.0,88,0.00,,,0.00,,2013-04-29 07:11:00,
2013-04-29 02:21:00,51.0,48.0,29.79,South,186,0.0,0.0,89,0.00,,,0.00,,2013-04-29 07:21:00,
2013-04-29 02:32:00,51.0,48.0,29.79,South,186,0.0,1.0,89,0.00,,,0.00,,2013-04-29 07:32:00,
2013-04-29 02:41:00,51.0,48.0,29.79,South,186,0.0,1.0,89,0.00,,,0.00,,2013-04-29 07:41:00,
2013-04-29 02:52:00,51.0,48.0,29.79,South,186,0.0,0.0,90,0.00,,,0.00,,2013-04-29 07:52:00,
2013-04-29 03:02:00,51.0,48.0,29.78,South,186,0.0,1.0,90,0.00,,,0.00,,2013-04-29 08:02:00,
2013-04-29 03:11:00,51.0,48.0,29.78,South,186,0.0,1.0,90,0.00,,,0.00,,2013-04-29 08:11:00,
2013-04-29 03:21:00,51.0,48.0,29.78,South,186,0.0,0.0,90,0.00,,,0.00,,2013-04-29 08:21:00,
2013-04-29 03:31:00,51.0,48.0,29.78,South,186,0.0,2.0,90,0.00,,,0.00,,2013-04-29 08:31:00,
2013-04-29 03:42:00,51.0,48.0,29.78,South,186,0.0,2.0,90,0.00,,,0.00,,2013-04-29 08:42:00,
2013-04-29 03:52:00,51.0,48.0,29.79,South,186,0.0,0.0,90,0.00,,,0.00,,2013-04-29 08:52:00,
2013-04-29 04:01:00,51.0,48.0,29.79,South,186,0.0,1.0,91,0.00,,,0.00,,2013-04-29 09:01:00,
2013-04-29 04:12:00,51.0,48.0,29.79,South,186,0.0,1.0,91,0.00,,,0.00,,2013-04-29 09:12:00,
2013-04-29 04:21:00,51.0,48.0,29.80,South,186,0.0,0.0,91,0.00,,,0.00,,2013-04-29 09:21:00,
2013-04-29 04:32:00,51.0,48.0,29.80,South,186,0.0,0.0,91,0.00,,,0.00,,2013-04-29 09:32:00,
2013-04-29 04:42:00,51.0,48.0,29.80,South,186,0.0,0.0,91,0.00,,,0.00,,2013-04-29 09:42:00,
2013-04-29 04:53:00,51.0,48.0,29.80,South,186,0.0,0.0,91,0.00,,,0.00,,2013-04-29 09:53:00,
2013-04-29 05:02:00,51.0,48.0,29.80,South,186,0.0,0.0,91,0.00,,,0.00,,2013-04-29 10:02:00,
2013-04-29 05:12:00,51.0,48.0,29.80,South,186,0.0,0.0,91,0.00,,,0.00,,2013-04-29 10:12:00,
2013-04-29 05:23:00,51.0,48.0,29.81,South,186,0.0,0.0,91,0.00,,,0.00,,2013-04-29 10:23:00,
2013-04-29 05:32:00,51.0,48.0,29.82,South,186,0.0,0.0,91,0.00,,,0.00,,2013-04-29 10:32:00,
2013-04-29 05:42:00,51.0,48.0,29.82,South,186,0.0,0.0,91,0.00,,,0.00,,2013-04-29 10:42:00,
2013-04-29 05:52:00,51.0,48.0,29.82,South,186,0.0,0.0,91,0.00,,,0.00,,2013-04-29 10:52:00,
2013-04-29 06:02:00,51.0,48.0,29.81,South,186,0.0,0.0,91,0.00,,,0.00,,2013-04-29 11:02:00,
2013-04-29 06:12:00,51.0,48.0,29.81,South,186,0.0,0.0,91,0.00,,,0.00,,2013-04-29 11:12:00,
2013-04-29 06:21:00,51.0,48.0,29.82,South,186,0.0,1.0,91,0.00,,,0.00,,2013-04-29 11:21:00,
2013-04-29 06:32:00,51.0,48.0,29.82,South,186,0.0,1.0,91,0.00,,,0.00,,2013-04-29 11:32:00,
2013-04-29 06:42:00,51.0,48.0,29.82,South,186,0.0,1.0,91,0.00,,,0.00,,2013-04-29 11:42:00,
2013-04-29 06:52:00,52.0,49.0,29.82,South,186,0.0,2.0,91,0.00,,,0.00,,2013-04-29 11:52:00,
2013-04-29 07:01:00,52.0,49.0,29.82,South,186,0.0,2.0,91,0.00,,,0.00,,2013-04-29 12:01:00,
2013-04-29 07:12:00,52.0,49.0,29.82,South,186,0.0,2.0,91,0.00,,,0.00,,2013-04-29 12:12:00,
2013-04-29 07:22:00,52.0,49.0,29.82,South,186,1.0,6.0,90,0.00,,,0.00,,2013-04-29 12:22:00,
2013-04-29 07:31:00,53.0,50.0,29.81,SSE,156,1.0,5.0,90,0.00,,,0.00,,2013-04-29 12:31:00,
2013-04-29 07:42:00,53.0,50.0,29.81,SSE,156,1.0,5.0,90,0.00,,,0.00,,2013-04-29 12:42:00,
2013-04-29 07:52:00,53.0,50.0,29.82,SSE,166,1.0,2.0,90,0.00,,,0.00,,2013-04-29 12:52:00,
2013-04-29 08:01:00,54.0,51.0,29.82,SSW,192,1.0,7.0,89,0.00,,,0.00,,2013-04-29 13:01:00,
2013-04-29 08:11:00,54.0,51.0,29.82,SSW,192,1.0,7.0,89,0.00,,,0.00,,2013-04-29 13:11:00,
2013-04-29 08:21:00,54.0,51.0,29.82,South,181,3.0,6.0,88,0.00,,,0.00,,2013-04-29 13:21:00,
2013-04-29 08:31:00,55.0,51.0,29.82,South,171,5.0,7.0,87,0.00,,,0.00,,2013-04-29 13:31:00,
2013-04-29 08:42:00,55.0,51.0,29.82,South,171,5.0,7.0,87,0.00,,,0.00,,2013-04-29 13:42:00,
2013-04-29 08:52:00,55.0,51.0,29.82,SW,217,7.0,10.0,86,0.00,,,0.00,,2013-04-29 13:52:00,
2013-04-29 09:01:00,56.0,52.0,29.82,SSW,205,8.0,12.0,85,0.00,,,0.00,,2013-04-29 14:01:00,
2013-04-29 09:11:00,56.0,52.0,29.82,SSW,205,8.0,12.0,85,0.00,,,0.00,,2013-04-29 14:11:00,
2013-04-29 09:21:00,57.0,52.0,29.82,SSW,198,5.0,12.0,83,0.00,,,0.00,,2013-04-29 14:21:00,
2013-04-29 09:32:00,58.0,53.0,29.82,SSE,165,8.0,11.0,82,0.00,,,0.00,,2013-04-29 14:32:00,
2013-04-29 09:42:00,58.0,53.0,29.82,SSE,165,8.0,11.0,82,0.00,,,0.00,,2013-04-29 14:42:00,
2013-04-29 09:52:00,59.0,53.0,29.81,South,179,6.0,10.0,81,0.00,,,0.00,,2013-04-29 14:52:00,
2013-04-29 10:01:00,60.0,54.0,29.81,South,187,6.0,11.0,80,0.00,,,0.00,,2013-04-29 15:01:00,
2013-04-29 10:12:00,60.0,54.0,29.81,South,187,6.0,11.0,80,0.00,,,0.00,,2013-04-29 15:12:00,
2013-04-29 10:21:00,61.0,54.0,29.80,South,190,4.0,10.0,79,0.00,,,0.00,,2013-04-29 15:21:00,
2013-04-29 10:33:00,62.0,54.0,29.80,South,183,5.0,13.0,76,0.00,,,0.00,,2013-04-29 15:33:00,
2013-04-29 10:42:00,62.0,54.0,29.80,South,183,5.0,13.0,76,0.00,,,0.00,,2013-04-29 15:42:00,
2013-04-29 10:53:00,63.0,55.0,29.79,South,176,7.0,13.0,75,0.00,,,0.00,,2013-04-29 15:53:00,
2013-04-29 11:02:00,64.0,56.0,29.80,SSE,150,4.0,16.0,74,0.00,,,0.00,,2013-04-29 16:02:00,
2013-04-29 11:12:00,64.0,56.0,29.80,SSE,150,4.0,16.0,74,0.00,,,0.00,,2013-04-29 16:12:00,
2013-04-29 11:23:00,64.0,55.0,29.81,South,190,5.0,13.0,73,0.00,,,0.00,,2013-04-29 16:23:00,
2013-04-29 11:33:00,65.0,55.0,29.81,SSW,210,1.0,13.0,71,0.00,,,0.00,,2013-04-29 16:33:00,
2013-04-29 11:42:00,65.0,55.0,29.81,SSW,210,1.0,13.0,71,0.00,,,0.00,,2013-04-29 16:42:00,
2013-04-29 11:52:00,65.0,55.0,29.81,SSW,205,5.0,11.0,69,0.00,,,0.00,,2013-04-29 16:52:00,
2013-04-29 12:02:00,66.0,54.0,29.81,SSW,210,7.0,13.0,65,0.00,,,0.00,,2013-04-29 17:02:00,
2013-04-29 12:12:00,66.0,54.0,29.81,SSW,210,7.0,13.0,65,0.00,,,0.00,,2013-04-29 17:12:00,
2013-04-29 12:22:00,67.0,54.0,29.81,SW,216,4.0,11.0,64,0.00,,,0.00,,2013-04-29 17:22:00,
2013-04-29 12:32:00,67.0,54.0,29.80,SW,223,5.0,11.0,63,0.00,,,0.00,,2013-04-29 17:32:00,
2013-04-29 12:42:00,67.0,54.0,29.80,SW,223,5.0,11.0,63,0.00,,,0.00,,2013-04-29 17:42:00,
2013-04-29 12:52:00,66.0,53.0,29.79,South,183,7.0,8.0,62,0.00,,,0.00,,2013-04-29 17:52:00,
2013-04-29 13:01:00,66.0,53.0,29.80,South,190,1.0,9.0,63,0.00,,,0.00,,2013-04-29 18:01:00,
2013-04-29 13:13:00,66.0,53.0,29.80,South,190,1.0,9.0,63,0.00,,,0.00,,2013-04-29 18:13:00,
2013-04-29 13:22:00,66.0,53.0,29.79,South,184,5.0,10.0,63,0.00,,,0.00,,2013-04-29 18:22:00,
2013-04-29 13:32:00,66.0,53.0,29.79,South,184,5.0,10.0,63,0.00,,,0.00,,2013-04-29 18:32:00,
2013-04-29 13:42:00,66.0,53.0,29.79,South,184,5.0,10.0,63,0.00,,,0.00,,2013-04-29 18:42:00,
2013-04-29 13:51:00,66.0,53.0,29.78,South,176,5.0,10.0,63,0.00,,,0.00,,2013-04-29 18:51:00,
2013-04-29 14:01:00,66.0,53.0,29.77,South,171,3.0,11.0,63,0.00,,,0.00,,2013-04-29 19:01:00,
2013-04-29 14:11:00,66.0,53.0,29.77,South,171,3.0,11.0,63,0.00,,,0.00,,2013-04-29 19:11:00,
2013-04-29 14:21:00,67.0,54.0,29.77,SSW,194,6.0,9.0,63,0.00,,,0.00,,2013-04-29 19:21:00,
2013-04-29 14:31:00,67.0,54.0,29.76,ESE,121,1.0,7.0,63,0.00,,,0.00,,2013-04-29 19:31:00,
2013-04-29 14:41:00,67.0,54.0,29.76,ESE,121,1.0,7.0,63,0.00,,,0.00,,2013-04-29 19:41:00,
2013-04-29 14:52:00,69.0,54.0,29.76,South,186,6.0,11.0,59,0.00,,,0.00,,2013-04-29 19:52:00,
2013-04-29 15:02:00,68.0,53.0,29.76,South,180,8.0,14.0,58,0.00,,,0.00,,2013-04-29 20:02:00,
2013-04-29 15:11:00,68.0,53.0,29.76,South,180,8.0,14.0,58,0.00,,,0.00,,2013-04-29 20:11:00,
2013-04-29 15:21:00,68.0,54.0,29.75,SSW,198,8.0,13.0,60,0.00,,,0.00,,2013-04-29 20:21:00,
2013-04-29 15:32:00,67.0,54.0,29.76,South,187,4.0,14.0,62,0.00,,,0.00,,2013-04-29 20:32:00,
2013-04-29 15:42:00,67.0,54.0,29.76,South,187,4.0,14.0,62,0.00,,,0.00,,2013-04-29 20:42:00,
2013-04-29 15:52:00,66.0,54.0,29.76,SSE,155,4.0,11.0,66,0.00,,,0.00,,2013-04-29 20:52:00,
2013-04-29 16:01:00,65.0,55.0,29.74,SSW,195,8.0,14.0,70,0.00,,,0.00,,2013-04-29 21:01:00,
2013-04-29 16:11:00,65.0,55.0,29.74,SSW,195,8.0,14.0,70,0.00,,,0.00,,2013-04-29 21:11:00,
2013-04-29 16:21:00,63.0,55.0,29.75,South,190,5.0,11.0,76,0.00,,,0.00,,2013-04-29 21:21:00,
2013-04-29 16:33:00,62.0,55.0,29.74,SSE,159,2.0,8.0,79,0.00,,,0.00,,2013-04-29 21:33:00,
2013-04-29 16:42:00,62.0,55.0,29.74,SSE,159,2.0,8.0,79,0.00,,,0.00,,2013-04-29 21:42:00,
2013-04-29 16:53:00,62.0,56.0,29.74,SE,130,0.0,4.0,81,0.00,,,0.00,,2013-04-29 21:53:00,
2013-04-29 17:02:00,62.0,56.0,29.74,SSE,165,0.0,2.0,82,0.01,,,0.01,,2013-04-29 22:02:00,
2013-04-29 17:13:00,62.0,56.0,29.74,SSE,165,0.0,2.0,82,0.01,,,0.01,,2013-04-29 22:13:00,
2013-04-29 17:23:00,62.0,57.0,29.72,SSE,150,0.0,1.0,83,0.02,,,0.02,,2013-04-29 22:23:00,
2013-04-29 17:32:00,62.0,57.0,29.72,SSE,150,0.0,1.0,83,0.02,,,0.02,,2013-04-29 22:32:00,
2013-04-29 17:42:00,62.0,57.0,29.72,SSE,150,0.0,1.0,83,0.02,,,0.02,,2013-04-29 22:42:00,
2013-04-29 17:52:00,63.0,58.0,29.73,SSE,150,0.0,1.0,83,0.02,,,0.02,,2013-04-29 22:52:00,
2013-04-29 18:02:00,63.0,57.0,29.72,ESE,105,0.0,1.0,82,0.01,,,0.02,,2013-04-29 23:02:00,
2013-04-29 18:11:00,63.0,57.0,29.72,ESE,105,0.0,1.0,82,0.01,,,0.02,,2013-04-29 23:11:00,
2013-04-29 18:22:00,63.0,57.0,29.73,ESE,117,1.0,2.0,82,0.00,,,0.02,,2013-04-29 23:22:00,
2013-04-29 18:32:00,64.0,58.0,29.73,SSE,153,1.0,2.0,80,0.00,,,0.02,,2013-04-29 23:32:00,
2013-04-29 18:42:00,64.0,58.0,29.73,SSE,153,1.0,2.0,80,0.00,,,0.02,,2013-04-29 23:42:00,
2013-04-29 18:52:00,64.0,57.0,29.72,SSE,153,0.0,1.0,78,0.00,,,0.02,,2013-04-29 23:52:00,
2013-04-29 19:01:00,64.0,57.0,29.72,SSE,151,0.0,5.0,78,0.00,,,0.02,,2013-04-30 00:01:00,
2013-04-29 19:11:00,64.0,57.0,29.72,SSE,151,0.0,5.0,78,0.00,,,0.02,,2013-04-30 00:11:00,
2013-04-29 19:21:00,64.0,57.0,29.72,SSE,150,0.0,1.0,79,0.00,,,0.02,,2013-04-30 00:21:00,
2013-04-29 19:32:00,64.0,57.0,29.71,SE,144,0.0,2.0,77,0.00,,,0.02,,2013-04-30 00:32:00,
2013-04-29 19:41:00,64.0,57.0,29.71,SE,144,0.0,2.0,77,0.00,,,0.02,,2013-04-30 00:41:00,
2013-04-29 19:52:00,64.0,56.0,29.71,ESE,123,0.0,4.0,76,0.00,,,0.02,,2013-04-30 00:52:00,
2013-04-29 20:02:00,63.0,55.0,29.72,SE,136,0.0,1.0,76,0.00,,,0.02,,2013-04-30 01:02:00,
2013-04-29 20:11:00,63.0,55.0,29.72,SE,136,0.0,1.0,76,0.00,,,0.02,,2013-04-30 01:11:00,
2013-04-29 20:21:00,63.0,55.0,29.72,SE,136,0.0,4.0,76,0.00,,,0.02,,2013-04-30 01:21:00,
2013-04-29 20:32:00,63.0,55.0,29.71,South,181,0.0,2.0,74,0.00,,,0.02,,2013-04-30 01:32:00,
2013-04-29 20:41:00,63.0,55.0,29.71,South,181,0.0,2.0,74,0.00,,,0.02,,2013-04-30 01:41:00,
2013-04-29 20:52:00,63.0,55.0,29.72,East,82,0.0,2.0,75,0.00,,,0.02,,2013-04-30 01:52:00,
2013-04-29 21:01:00,62.0,54.0,29.72,South,173,1.0,6.0,74,0.00,,,0.02,,2013-04-30 02:01:00,
2013-04-29 21:11:00,62.0,54.0,29.72,South,173,1.0,6.0,74,0.00,,,0.02,,2013-04-30 02:11:00,
2013-04-29 21:21:00,63.0,55.0,29.72,East,100,0.0,6.0,74,0.00,,,0.02,,2013-04-30 02:21:00,
2013-04-29 21:31:00,63.0,55.0,29.72,South,184,1.0,7.0,74,0.00,,,0.02,,2013-04-30 02:31:00,
2013-04-29 21:41:00,63.0,55.0,29.72,South,184,1.0,7.0,74,0.00,,,0.02,,2013-04-30 02:41:00,
2013-04-29 21:51:00,62.0,53.0,29.72,SE,137,2.0,6.0,73,0.00,,,0.02,,2013-04-30 02:51:00,
2013-04-29 22:01:00,62.0,54.0,29.72,SSE,147,0.0,2.0,74,0.00,,,0.02,,2013-04-30 03:01:00,
2013-04-29 22:11:00,62.0,54.0,29.72,SSE,167,0.0,6.0,75,0.00,,,0.02,,2013-04-30 03:11:00,
2013-04-29 22:21:00,62.0,54.0,29.72,SSE,167,0.0,6.0,75,0.00,,,0.02,,2013-04-30 03:21:00,
2013-04-29 22:33:00,61.0,53.0,29.72,ESE,122,0.0,2.0,76,0.00,,,0.02,,2013-04-30 03:33:00,
2013-04-29 22:42:00,61.0,53.0,29.72,ESE,122,0.0,2.0,76,0.00,,,0.02,,2013-04-30 03:42:00,
2013-04-29 22:52:00,61.0,54.0,29.72,SSE,152,0.0,2.0,77,0.00,,,0.02,,2013-04-30 03:52:00,
2013-04-29 23:02:00,61.0,54.0,29.71,South,169,2.0,6.0,78,0.00,,,0.02,,2013-04-30 04:02:00,
2013-04-29 23:12:00,61.0,54.0,29.71,South,169,2.0,6.0,78,0.00,,,0.02,,2013-04-30 04:12:00,
2013-04-29 23:22:00,61.0,54.0,29.71,South,187,0.0,6.0,79,0.00,,,0.02,,2013-04-30 04:22:00,
2013-04-29 23:32:00,61.0,55.0,29.71,SSE,157,0.0,5.0,80,0.00,,,0.02,,2013-04-30 04:32:00,
2013-04-29 23:42:00,61.0,55.0,29.71,SSE,157,0.0,5.0,80,0.00,,,0.02,,2013-04-30 04:42:00,
2013-04-29 23:52:00,61.0,55.0,29.70,SE,146,1.0,6.0,81,0.00,,,0.02,,2013-04-30 04:52:00,